User: anonymous   Login
Location: St. Malo Provincial Park
(49.3214°N, 96.9305°W)
Time: 08:26:59
(UTC-06:00)
Language:

Iridium 6 - Orbit

View from above orbital plane
View from above orbital plane
View from above satellite
View from above satellite

Ground track
Ground track

The orbit data is extracted from the following two-line orbital elements,

1 24794U 97020C   16038.44873272  .00000253  00000-0  83250-4 0  9991
2 24794  86.4009 166.1209 0002057  98.4561 261.6868 14.34224883982147
Epoch (UTC): 07 February 2016 10:46:10
Eccentricity: 0.0002057
inclination: 86.4009°
perigee height: 776 km
apogee height: 779 km
right ascension of ascending node: 166.1209°
argument of perigee: 98.4561°
revolutions per day: 14.34224883
mean anomaly at epoch: 261.6868°
orbit number at epoch: 98214

The dashed part of the orbit path shows where the satellite is in the earth's shadow,  

DLR